TimePST,TemperatureF,Dew PointF,Humidity,Sea Level PressureIn,VisibilityMPH,Wind Direction,Wind SpeedMPH,Gust SpeedMPH,PrecipitationIn,Events,Conditions,WindDirDegrees,DateUTC
12:09 AM,21.2,17.6,86,30.24,4.0,SSW,3.5,-,N/A,,Clear,200,2013-01-09 08:09:00
12:17 AM,21.2,17.6,86,30.24,7.0,South,4.6,-,N/A,,Clear,190,2013-01-09 08:17:00
12:53 AM,21.9,18.0,85,30.24,10.0,Calm,Calm,-,N/A,,Clear,0,2013-01-09 08:53:00
1:53 AM,21.0,17.1,85,30.25,8.0,Calm,Calm,-,N/A,,Clear,0,2013-01-09 09:53:00
2:01 AM,21.2,17.6,86,30.24,8.0,Calm,Calm,-,N/A,,Scattered Clouds,0,2013-01-09 10:01:00
2:12 AM,21.2,17.6,86,30.23,8.0,Calm,Calm,-,N/A,,Mostly Cloudy,0,2013-01-09 10:12:00
2:53 AM,19.9,16.0,85,30.22,8.0,Calm,Calm,-,N/A,,Mostly Cloudy,0,2013-01-09 10:53:00
3:15 AM,19.4,15.8,86,30.20,8.0,Calm,Calm,-,N/A,,Scattered Clouds,0,2013-01-09 11:15:00
3:53 AM,18.0,14.0,84,30.20,8.0,Calm,Calm,-,N/A,,Clear,0,2013-01-09 11:53:00
4:01 AM,17.6,14.0,86,30.17,8.0,Calm,Calm,-,N/A,,Partly Cloudy,0,2013-01-09 12:01:00
4:53 AM,18.0,12.9,81,30.18,10.0,NNE,5.8,-,N/A,,Clear,30,2013-01-09 12:53:00
5:21 AM,19.4,15.8,86,30.14,5.0,Calm,Calm,-,N/A,,Partly Cloudy,0,2013-01-09 13:21:00
5:53 AM,21.0,17.1,85,30.17,10.0,Variable,3.5,-,N/A,,Clear,0,2013-01-09 13:53:00
6:53 AM,21.0,16.0,81,30.15,10.0,Calm,Calm,-,N/A,,Clear,0,2013-01-09 14:53:00
7:53 AM,33.1,21.9,64,30.09,10.0,SSW,6.9,-,N/A,,Clear,200,2013-01-09 15:53:00
8:53 AM,48.9,19.9,32,30.03,10.0,SSW,20.7,34.5,N/A,,Clear,200,2013-01-09 16:53:00
9:53 AM,50.0,21.0,32,30.00,10.0,South,24.2,35.7,N/A,,Clear,190,2013-01-09 17:53:00
10:53 AM,50.0,19.0,29,30.00,10.0,SSW,20.7,38.0,N/A,,Clear,200,2013-01-09 18:53:00
11:53 AM,48.9,21.0,33,29.96,10.0,SSW,12.7,33.4,N/A,,Clear,210,2013-01-09 19:53:00
12:53 PM,48.0,23.0,37,29.93,10.0,SSW,13.8,26.5,N/A,,Clear,210,2013-01-09 20:53:00
1:53 PM,46.9,23.0,39,29.90,10.0,SSW,15.0,31.1,N/A,,Partly Cloudy,210,2013-01-09 21:53:00
2:53 PM,45.0,24.1,44,29.89,10.0,SSW,16.1,25.3,N/A,,Mostly Cloudy,210,2013-01-09 22:53:00
3:53 PM,42.1,25.0,51,29.88,10.0,SSW,20.7,31.1,N/A,,Overcast,200,2013-01-09 23:53:00
4:53 PM,41.0,25.0,53,29.86,10.0,SSW,13.8,25.3,0.00,,Overcast,210,2013-01-10 00:53:00
5:53 PM,39.9,26.1,58,29.81,10.0,SSW,12.7,23.0,N/A,,Overcast,210,2013-01-10 01:53:00
6:43 PM,37.4,28.4,70,29.79,2.5,South,17.3,23.0,0.00,Snow,Light Snow,190,2013-01-10 02:43:00
6:53 PM,35.1,28.0,76,29.81,1.0,SSW,10.4,19.6,0.00,Snow,Light Snow,200,2013-01-10 02:53:00
7:05 PM,33.8,28.4,81,29.80,1.0,SSW,8.1,-,0.00,Snow,Light Snow,210,2013-01-10 03:05:00
7:10 PM,33.8,28.4,81,29.80,0.8,SW,8.1,-,0.00,Snow,Light Snow,230,2013-01-10 03:10:00
7:18 PM,33.8,28.4,81,29.79,0.5,South,12.7,16.1,0.01,Snow,Snow,190,2013-01-10 03:18:00
7:41 PM,33.8,28.4,81,29.77,1.0,South,10.4,-,0.02,Snow,Light Snow,190,2013-01-10 03:41:00
7:51 PM,33.8,28.4,81,29.76,1.2,South,10.4,-,0.02,Snow,Light Snow,190,2013-01-10 03:51:00
7:53 PM,33.1,28.9,85,29.75,1.2,SSW,9.2,-,0.02,Snow,Light Snow,200,2013-01-10 03:53:00
8:03 PM,33.8,28.4,81,29.75,1.5,South,10.4,-,0.00,Snow,Light Snow,190,2013-01-10 04:03:00
8:46 PM,33.8,28.4,81,29.72,1.0,SSW,11.5,19.6,0.02,Snow,Light Snow,200,2013-01-10 04:46:00
8:53 PM,33.1,28.0,82,29.65,1.0,South,11.5,-,0.02,Snow,Light Snow,190,2013-01-10 04:53:00
9:03 PM,32.0,28.4,87,29.72,0.8,South,10.4,-,0.00,Snow,Light Snow,190,2013-01-10 05:03:00
9:53 PM,28.9,25.0,85,29.70,0.2,SSW,5.8,-,0.03,Fog-Snow,Heavy Snow,210,2013-01-10 05:53:00
10:06 PM,26.6,21.2,80,29.78,0.2,SSW,11.5,23.0,0.01,Snow,Heavy Snow,200,2013-01-10 06:06:00
10:28 PM,24.8,19.4,80,29.80,0.5,South,10.4,21.9,0.02,Snow,Snow,180,2013-01-10 06:28:00
10:53 PM,24.1,17.1,75,29.75,1.0,South,9.2,-,0.02,Snow,Light Snow,190,2013-01-10 06:53:00
11:00 PM,24.8,17.6,74,29.81,1.2,South,11.5,-,0.00,Snow,Light Snow,190,2013-01-10 07:00:00
11:13 PM,24.8,17.6,74,29.81,0.8,South,15.0,20.7,0.01,Snow,Light Snow,180,2013-01-10 07:13:00
11:22 PM,23.0,17.6,80,29.79,0.5,South,3.5,20.7,0.01,Snow,Snow,170,2013-01-10 07:22:00
11:33 PM,23.0,17.6,80,29.79,1.0,South,6.9,-,0.01,Snow,Light Snow,170,2013-01-10 07:33:00
11:41 PM,23.0,17.6,80,29.79,1.5,SSW,8.1,-,0.01,Snow,Light Snow,200,2013-01-10 07:41:00
11:47 PM,23.0,17.6,80,29.78,2.0,South,8.1,-,0.01,Snow,Light Snow,190,2013-01-10 07:47:00
11:53 PM,23.0,17.1,78,29.75,2.5,South,10.4,-,0.01,Snow,Light Snow,190,2013-01-10 07:53:00